Auburn, AL

1:07 AM CST on December 07, 2019 (GMT -0600)
Auburn-opelika-pitts

Weather History for KAUO - November, 2019

Change the Weather History Date:

Friday, November 22, 2019

  Actual Average Record
Temperature  
Mean Temperature 61 °F -  
Max Temperature 72 °F - 77 °F (1992)
Min Temperature 50 °F - 23 °F (1968)
Degree Days  
Heating Degree Days 4    
Month to date heating degree days 283  
Since 1 July heating degree days 334  
Growing Degree Days 10 (Base 50)    
Moisture  
Dew Point 53 °F    
Average Humidity 77    
Maximum Humidity 90    
Minimum Humidity 56    
Precipitation  
Precipitation T in - 2.75 in (2004)
Month to date precipitation 2.63  
Year to date precipitation 35.58  
Sea Level Pressure  
Sea Level Pressure 30.14 in    
Wind  
Wind Speed 5 mph (South)    
Max Wind Speed 8 mph    
Max Gust Speed -    
Visibility 10 miles    
Events Rain    
T = Trace of Precipitation, MM = Missing Value Source: NWS Daily Summary

Daily Weather History Graph

Daily Weather History Graph

Search for Another Location

Airport or City:

Astronomy

Nov. 22, 2019 Rise Set
Actual Time 6:17 AM CST 4:37 PM CST
Civil Twilight 5:51 AM CST 5:04 PM CST
Nautical Twilight 5:21 AM CST 5:34 PM CST
Astronomical Twilight 4:51 AM CST 6:03 PM CST
Moon 1:43 AM CST (11/22) 2:20 PM CST (11/22)
Length of Visible Light 11h 12m
Length of Day
10h 19m
Waning Crescent, 19% of the Moon is Illuminated
Nov 22
Waning Crescent
Nov 26
New
Dec 4
First Quarter
Dec 11
Full
Dec 18
Last Quarter

Hourly Weather History & Observations

Time (CST) Temp. Dew Point Humidity Pressure Visibility Wind Dir Wind Speed Gust Speed Precip Events Conditions
12:56 AM 52.0 °F 44.1 °F 74% 30.20 in 10.0 mi SSE 4.6 mph - N/A   Clear
1:56 AM 51.1 °F 44.1 °F 77% 30.20 in 10.0 mi South 3.5 mph - N/A   Clear
2:56 AM 51.1 °F 45.0 °F 80% 30.19 in 10.0 mi South 4.6 mph - N/A   Clear
3:56 AM 51.1 °F 45.0 °F 80% 30.18 in 10.0 mi South 3.5 mph - N/A   Clear
4:56 AM 51.1 °F 46.0 °F 83% 30.19 in 10.0 mi Calm Calm - 0.00 in   Clear
5:56 AM 51.1 °F 46.9 °F 86% 30.21 in 10.0 mi Calm Calm - 0.00 in   Scattered Clouds
6:56 AM 52.0 °F 48.0 °F 86% 30.21 in 10.0 mi SE 3.5 mph - N/A   Clear
7:56 AM 54.0 °F 48.9 °F 83% 30.22 in 10.0 mi SE 3.5 mph - N/A   Clear
8:56 AM 55.9 °F 48.0 °F 75% 30.23 in 10.0 mi SSE 4.6 mph - N/A   Mostly Cloudy
9:37 AM 60.8 °F 46.4 °F 59% 30.15 in 10.0 mi South 8.1 mph - N/A   Scattered Clouds
9:56 AM 61.0 °F 46.0 °F 58% 30.22 in 10.0 mi South 8.1 mph - N/A   Mostly Cloudy
10:56 AM 64.0 °F 48.0 °F 56% 30.18 in 10.0 mi SSE 8.1 mph - N/A   Clear
12:56 PM 69.1 °F 55.0 °F 61% 30.12 in 10.0 mi WSW 5.8 mph - N/A   Clear
1:56 PM 70.0 °F 57.0 °F 63% 30.09 in 10.0 mi South 8.1 mph - N/A   Mostly Cloudy
2:56 PM 70.0 °F 57.9 °F 65% 30.09 in 10.0 mi SE 3.5 mph - N/A   Scattered Clouds
3:56 PM 70.0 °F 59.0 °F 68% 30.09 in 10.0 mi SSW 6.9 mph - N/A   Mostly Cloudy
4:56 PM 66.9 °F 59.0 °F 76% 30.10 in 10.0 mi Calm Calm - 0.00 in   Overcast
5:56 PM 66.0 °F 60.1 °F 81% 30.10 in 10.0 mi South 6.9 mph - 0.00 in Rain Light Rain
6:56 PM 64.0 °F 60.1 °F 87% 30.09 in 10.0 mi SSE 5.8 mph - 0.00 in   Overcast
7:44 PM 64.4 °F 60.8 °F 88% 30.04 in 10.0 mi South 4.6 mph - N/A   Overcast
7:56 PM 64.0 °F 60.1 °F 87% 30.10 in 10.0 mi South 4.6 mph - N/A   Overcast
8:10 PM 64.4 °F 60.8 °F 88% 30.04 in 10.0 mi South 4.6 mph - N/A   Overcast
8:56 PM 64.0 °F 60.1 °F 87% 30.10 in 10.0 mi SSW 4.6 mph - N/A   Overcast
9:56 PM 64.0 °F 59.0 °F 84% 30.08 in 10.0 mi South 6.9 mph - N/A   Overcast
10:56 PM 63.0 °F 59.0 °F 87% 30.06 in 10.0 mi SSW 8.1 mph - N/A   Scattered Clouds
11:56 PM 61.0 °F 57.9 °F 90% 30.05 in 10.0 mi SSW 8.1 mph - N/A   Clear